Location: Dover
(48.8500°N, 53.9833°W)
Time: 17:06:20
(UTC+00:00)

YAOGAN 1 - Pass Details

Date: 14 November 2025
Orbit: 605 x 607 km, 97.8° (Epoch: 12 December)

Event Time Altitude Azimuth Distance (km) Brightness Sun altitude
Rises 22:15:43 0° 176° (S) 2,854 6.0 -22.8°
Reaches altitude 10° 22:17:55 10° 180° (S) 1,955 5.1 -23.2°
Maximum altitude 22:22:06 57° 260° (W) 722 3.1 -23.9°
Drops below altitude 10° 22:26:19 10° 339° (NNW) 1,970 5.4 -24.5°
Sets 22:28:33 0° 344° (NNW) 2,878 6.2 -24.9°
